Regional Weather Roundup
Issued by NWS

Home | Current Version | Previous Version | Graphics & Text | Print | Product List | Glossary On
Versions: 1 2 3 4 5 6 7 8 9 10 11 12 13 14 15 16 17 18 19 20 21 22 23 24 25 26 27 28 29 30 31 32 33 34 35 36 37 38 39 40 41 42 43 44 45 46 47 48 49 50
000
ASUS43 KBIS 052302
RWRND

NORTH DAKOTA REGIONAL WEATHER ROUNDUP
NATIONAL WEATHER SERVICE BISMARCK ND
500 PM CST FRI FEB 05 2016

NOTE: "FAIR" INDICATES FEW OR NO CLOUDS BELOW 12,000 FEET WITH NO
SIGNIFICANT WEATHER AND/OR OBSTRUCTIONS TO VISIBILITY.


NDZ001>003-009>011-017-060000-
NORTHWEST NORTH DAKOTA

CITY           SKY/WX    TMP DP  RH WIND       PRES   REMARKS
WILLISTON      CLEAR     40  26  57 SW7       30.05F
MINOT          CLOUDY    39  21  48 SW8       30.05F
MINOT AFB      CLEAR     37  24  59 CALM      30.04F
$$

NDZ018>021-031>035-040>046-060000-
SOUTHWEST NORTH DAKOTA

CITY           SKY/WX    TMP DP  RH WIND       PRES   REMARKS
BISMARCK       CLEAR     43  24  47 W9        30.12F
DICKINSON      CLEAR     38  21  50 W12       30.07F
GARRISON         N/A     38  22  52 W12       30.07F
HETTINGER ARPT CLEAR     41  19  41 W13       30.13F
$$

NDZ004>008-012>016-024-026-027-054-060000-
NORTHEAST NORTH DAKOTA

CITY           SKY/WX    TMP DP  RH WIND       PRES   REMARKS
GRAND FORKS    PTCLDY    28  19  69 CALM      30.13R
GRND FRKS AFB  CLEAR     28  19  68 W6        30.13R
DEVILS LAKE    CLEAR     24  20  84 SW6       30.10S WCI  17
$$

NDZ022-023-025-028>030-036>039-047>053-060000-
SOUTHEAST NORTH DAKOTA

CITY           SKY/WX    TMP DP  RH WIND       PRES   REMARKS
FARGO          CLEAR     28  21  75 W5        30.14S
JAMESTOWN      CLEAR     32  17  54 NW6       30.11S
$$




USA.gov is the U.S. government's official web portal to all federal, state and local government web resources and services.